Location: ????
(30.1475°N, 31.1342°E)
Time: 16:34:47
(UTC+00:00)

Cosmos 1605 Rocket - Pass Details

Date: 08 April 2023
Orbit: 943 x 1006 km, 82.9° (Epoch: 28 May)

Event Time Altitude Azimuth Distance (km) Brightness Sun altitude
Rises 01:41:22 0° 135° (SE) 3,696 7.3 -24.8°
Reaches altitude 10° 01:45:20 10° 111° (ESE) 2,762 6.9 -24.0°
Maximum altitude 01:48:14 14° 83° (E) 2,516 7.1 -23.4°
Drops below altitude 10° 01:51:10 10° 55° (NE) 2,779 7.5 -22.8°
Sets 01:55:09 0° 31° (NNE) 3,737 7.9 -22.0°
